{"data":{"norad_id":60057,"intl_designator":"2024-112V","name":"STARLINK-31437","alt_names":[],"object_type":"PAYLOAD","status":"ACTIVE","operator":null,"country":"US","launch_date":"2024-06-08","launch_site_code":"AFWTR","launch_vehicle":null,"mission":null,"orbit_class":"UNKNOWN","rcs_meters":null,"size_class":null,"mass_kg":null,"dimensions":null,"purposes":["comms"],"wikipedia_slug":null,"has_3d_model":false,"image_url":null,"decayed_at":null,"tle_current":{"epoch":"2026-09-21T15:41:58.264512Z","epoch_age_seconds":77916,"freshness":"FRESH","line1":"1 60057U 24112V   26264.65414658 -.00000045  00000+0  98137-5 0  9999","line2":"2 60057  53.1572 246.0625 0001364  87.3938 272.7221 15.34391186128623","mean_motion":15.34391186,"eccentricity":0.0001364,"inclination_deg":53.1572,"raan_deg":246.0625,"arg_perigee_deg":87.3938,"mean_anomaly_deg":272.7221,"bstar":9.8137e-6,"rev_number":12862,"period_min":93.84829717081,"perigee_km":461.79634321591,"apogee_km":463.66253158004,"semimajor_km":6840.866437398,"source":"CELESTRAK","updated_at":"2026-09-22T09:00:49.145714Z"}}}